| time (UTC) | temp F | wind direction | speed knots | gust knots | rain 1hr in | rain 24hr in | rain mn in | humidity % | barometer mb |
| 20260510234422 | 65 | 11 | 0.0 | 0.0 | 0.00 | 0.22 | 0.22 | 98 | 1017.6 |
| 20260510233917 | 65 | 21 | 0.0 | 0.0 | 0.00 | 0.22 | 0.22 | 98 | 1017.6 |
| 20260510233415 | 65 | 21 | 0.0 | 0.0 | 0.00 | 0.22 | 0.22 | 97 | 1017.5 |
| 20260510232910 | 65 | 20 | 0.0 | 0.0 | 0.00 | 0.22 | 0.22 | 97 | 1017.1 |
| 20260510232407 | 65 | 20 | 0.0 | 0.0 | 0.00 | 0.22 | 0.22 | 97 | 1017.3 |
| 20260510231903 | 65 | 20 | 0.0 | 0.0 | 0.00 | 0.22 | 0.22 | 97 | 1017.6 |
| 20260510231400 | 65 | 20 | 0.0 | 0.0 | 0.00 | 0.22 | 0.22 | 97 | 1017.5 |
| 20260510230857 | 65 | 20 | 0.0 | 0.0 | 0.00 | 0.22 | 0.22 | 97 | 1017.5 |
| 20260510230357 | 65 | 22 | 0.0 | 0.0 | 0.00 | 0.22 | 0.22 | 97 | 1017.3 |
| 20260510225855 | 65 | 22 | 0.0 | 0.9 | 0.00 | 0.22 | 0.22 | 97 | 1017.5 |
| 20260510225351 | 65 | 262 | 0.0 | 0.0 | 0.00 | 0.22 | 0.22 | 97 | 1017.7 |
| 20260510224846 | 65 | 182 | 0.0 | 0.0 | 0.00 | 0.22 | 0.22 | 96 | 1017.7 |
| 20260510224343 | 65 | 157 | 0.9 | 0.9 | 0.00 | 0.22 | 0.22 | 96 | 1017.6 |
| 20260510223840 | 65 | 175 | 0.0 | 0.0 | 0.00 | 0.22 | 0.22 | 96 | 1017.6 |
| 20260510223338 | 65 | 71 | 0.9 | 2.6 | 0.00 | 0.22 | 0.22 | 95 | 1017.3 |
| 20260510222835 | 65 | 188 | 0.0 | 0.0 | 0.00 | 0.22 | 0.22 | 95 | 1017.4 |
| 20260510222332 | 66 | 178 | 0.9 | 0.9 | 0.12 | 0.22 | 0.22 | 94 | 1017.5 |
| 20260510221832 | 66 | 196 | 0.0 | 0.9 | 0.24 | 0.22 | 0.22 | 94 | 1017.6 |
| 20260510221329 | 67 | 163 | 0.9 | 0.9 | 0.17 | 0.21 | 0.21 | 93 | 1017.7 |
| 20260510220825 | 67 | 168 | 0.0 | 0.0 | 0.00 | 0.18 | 0.18 | 92 | 1018.5 |
| 20260510220321 | 68 | 175 | 0.0 | 0.0 | 0.00 | 0.18 | 0.18 | 90 | 1018.5 |
| 20260510215818 | 68 | 182 | 0.0 | 0.0 | 0.00 | 0.18 | 0.18 | 87 | 1018.4 |
| 20260510215316 | 68 | 225 | 0.0 | 0.9 | 0.00 | 0.18 | 0.18 | 87 | 1018.1 |
| 20260510214813 | 68 | 63 | 0.9 | 1.7 | 0.00 | 0.18 | 0.18 | 86 | 1017.9 |
| 20260510214310 | 68 | 170 | 0.9 | 0.9 | 0.00 | 0.18 | 0.18 | 85 | 1017.8 |
| 20260510213807 | 68 | 159 | 0.9 | 1.7 | 0.00 | 0.18 | 0.18 | 85 | 1017.8 |
| 20260510213303 | 69 | 196 | 0.0 | 0.9 | 0.00 | 0.18 | 0.18 | 85 | 1018.0 |
| 20260510212759 | 69 | 209 | 0.9 | 1.7 | 0.00 | 0.18 | 0.18 | 83 | 1017.7 |
| 20260510212257 | 71 | 202 | 0.9 | 1.7 | 0.00 | 0.18 | 0.18 | 81 | 1018.2 |
| 20260510211754 | 71 | 176 | 0.0 | 0.0 | 0.00 | 0.18 | 0.18 | 82 | 1018.1 |
| 20260510211249 | 72 | 215 | 0.9 | 0.9 | 0.00 | 0.18 | 0.18 | 81 | 1017.3 |
| 20260510210746 | 72 | 206 | 0.0 | 0.0 | 0.00 | 0.18 | 0.18 | 79 | 1017.0 |
| 20260510210240 | 72 | 118 | 0.9 | 1.7 | 0.00 | 0.18 | 0.18 | 78 | 1017.0 |
| 20260510205734 | 73 | 62 | 1.7 | 1.7 | 0.00 | 0.18 | 0.18 | 78 | 1016.8 |
| 20260510205230 | 72 | 272 | 1.7 | 2.6 | 0.00 | 0.18 | 0.18 | 79 | 1017.2 |
| 20260510204727 | 72 | 172 | 0.0 | 0.0 | 0.00 | 0.18 | 0.18 | 81 | 1017.0 |
| 20260510204224 | 72 | 178 | 0.0 | 0.0 | 0.00 | 0.18 | 0.18 | 80 | 1017.0 |
| 20260510203720 | 72 | 184 | 0.0 | 0.9 | 0.00 | 0.18 | 0.18 | 80 | 1017.0 |
| 20260510203218 | 72 | 179 | 0.0 | 0.0 | 0.00 | 0.18 | 0.18 | 81 | 1017.1 |
| 20260510202717 | 72 | 11 | 0.9 | 0.9 | 0.00 | 0.18 | 0.18 | 80 | 1017.2 |
| 20260510202212 | 73 | 86 | 0.9 | 1.7 | 0.00 | 0.18 | 0.18 | 80 | 1017.4 |
| 20260510201710 | 73 | 107 | 0.0 | 0.9 | 0.00 | 0.18 | 0.18 | 80 | 1017.1 |
| 20260510201207 | 72 | 174 | 1.7 | 2.6 | 0.00 | 0.18 | 0.18 | 82 | 1016.9 |
| 20260510200703 | 71 | 168 | 0.0 | 0.9 | 0.00 | 0.18 | 0.18 | 87 | 1016.7 |
| 20260510200201 | 70 | 180 | 0.0 | 0.0 | 0.00 | 0.18 | 0.18 | 90 | 1017.1 |
| 20260510195658 | 69 | 193 | 0.0 | 0.9 | 0.00 | 0.18 | 0.18 | 89 | 1017.1 |
| 20260510195155 | 69 | 193 | 0.0 | 0.0 | 0.00 | 0.18 | 0.18 | 90 | 1017.1 |
| 20260510194654 | 69 | 194 | 0.0 | 0.9 | 0.00 | 0.18 | 0.18 | 90 | 1017.3 |
| 20260510194150 | 69 | 178 | 0.9 | 0.9 | 0.00 | 0.18 | 0.18 | 92 | 1017.2 |
| 20260510193646 | 69 | 176 | 0.9 | 0.9 | 0.00 | 0.18 | 0.18 | 94 | 1017.1 |
| 20260510193141 | 68 | 174 | 0.0 | 0.0 | 0.00 | 0.18 | 0.18 | 95 | 1017.4 |
| 20260510192637 | 68 | 145 | 0.9 | 0.9 | 0.00 | 0.18 | 0.18 | 95 | 1017.3 |
| 20260510192132 | 68 | 7 | 1.7 | 2.6 | 0.00 | 0.18 | 0.18 | 95 | 1017.4 |
| 20260510191629 | 68 | 45 | 0.0 | 0.9 | 0.00 | 0.18 | 0.18 | 96 | 1017.1 |
| 20260510191125 | 67 | 181 | 0.0 | 0.0 | 0.00 | 0.18 | 0.18 | 96 | 1017.3 |
| 20260510190623 | 67 | 145 | 0.0 | 0.0 | 0.00 | 0.18 | 0.18 | 97 | 1017.3 |
| 20260510190120 | 67 | 173 | 1.7 | 1.7 | 0.00 | 0.18 | 0.18 | 97 | 1017.4 |
| 20260510185616 | 67 | 179 | 0.9 | 1.7 | 0.00 | 0.18 | 0.18 | 97 | 1017.3 |
| 20260510185115 | 66 | 162 | 0.0 | 0.0 | 0.00 | 0.18 | 0.18 | 97 | 1017.5 |
| 20260510184611 | 66 | 171 | 0.0 | 0.9 | 0.00 | 0.18 | 0.18 | 97 | 1017.3 |
| 20260510184107 | 67 | 145 | 0.0 | 0.0 | 0.00 | 0.18 | 0.18 | 97 | 1017.4 |
| 20260510183602 | 66 | 193 | 0.0 | 0.9 | 0.00 | 0.18 | 0.18 | 97 | 1017.5 |
| 20260510183058 | 65 | 176 | 0.0 | 0.9 | 0.00 | 0.18 | 0.18 | 97 | 1017.5 |
| 20260510182555 | 65 | 186 | 0.0 | 0.0 | 0.00 | 0.18 | 0.18 | 97 | 1017.5 |
| 20260510182050 | 65 | 192 | 0.0 | 0.0 | 0.00 | 0.18 | 0.18 | 97 | 1017.3 |
| 20260510181548 | 65 | 186 | 0.0 | 0.0 | 0.07 | 0.18 | 0.18 | 97 | 1017.1 |
| 20260510181043 | 65 | 21 | 2.6 | 2.6 | 0.07 | 0.18 | 0.18 | 96 | 1016.9 |
| 20260510180540 | 64 | 152 | 0.0 | 0.9 | 0.05 | 0.17 | 0.17 | 96 | 1017.0 |
| 20260510180039 | 64 | 177 | 0.0 | 0.0 | 0.12 | 0.17 | 0.17 | 96 | 1016.7 |
| 20260510175539 | 64 | 212 | 0.0 | 0.9 | 0.35 | 0.16 | 0.16 | 95 | 1016.6 |
| 20260510175035 | 64 | 189 | 0.0 | 0.0 | 0.42 | 0.15 | 0.15 | 95 | 1017.0 |
| 20260510174534 | 64 | 193 | 0.0 | 0.0 | 0.42 | 0.10 | 0.10 | 94 | 1017.2 |
| 20260510174030 | 65 | 177 | 0.0 | 0.0 | 0.47 | 0.08 | 0.08 | 92 | 1017.5 |
| 20260510173525 | 66 | 211 | 0.0 | 0.9 | 0.24 | 0.04 | 0.04 | 90 | 1017.8 |
| 20260510173022 | 67 | 351 | 0.9 | 0.9 | 0.00 | 0.00 | 0.00 | 86 | 1017.5 |
| 20260510172518 | 68 | 178 | 0.9 | 0.9 | 0.00 | 0.00 | 0.00 | 81 | 1017.5 |
| 20260510172015 | 69 | 218 | 0.0 | 0.9 | 0.00 | 0.00 | 0.00 | 78 | 1017.6 |
| 20260510171511 | 70 | 191 | 1.7 | 2.6 | 0.00 | 0.00 | 0.00 | 76 | 1017.5 |
| 20260510171008 | 72 | 171 | 0.9 | 1.7 | 0.00 | 0.00 | 0.00 | 72 | 1017.0 |
| 20260510170505 | 75 | 173 | 0.9 | 1.7 | 0.00 | 0.00 | 0.00 | 69 | 1017.0 |
| 20260510170001 | 78 | 166 | 0.9 | 0.9 | 0.00 | 0.00 | 0.00 | 73 | 1016.6 |
| 20260510165457 | 79 | 182 | 0.0 | 0.0 | 0.00 | 0.00 | 0.00 | 70 | 1015.9 |
| 20260510164954 | 80 | 190 | 0.0 | 0.0 | 0.00 | 0.00 | 0.00 | 70 | 1015.6 |
| 20260510164451 | 80 | 206 | 0.0 | 0.0 | 0.00 | 0.00 | 0.00 | 70 | 1015.4 |
| 20260510163946 | 80 | 200 | 0.0 | 0.0 | 0.00 | 0.00 | 0.00 | 69 | 1015.3 |
| 20260510163442 | 80 | 193 | 0.0 | 0.0 | 0.00 | 0.00 | 0.00 | 68 | 1015.2 |
| 20260510162937 | 80 | 206 | 0.0 | 0.0 | 0.00 | 0.00 | 0.00 | 68 | 1015.0 |
| 20260510162435 | 80 | 204 | 0.0 | 0.0 | 0.00 | 0.00 | 0.00 | 69 | 1015.0 |
| 20260510161930 | 79 | 179 | 0.0 | 0.0 | 0.00 | 0.00 | 0.00 | 67 | 1014.6 |
| 20260510161426 | 80 | 25 | 1.7 | 2.6 | 0.00 | 0.00 | 0.00 | 65 | 1014.5 |
| 20260510160918 | 80 | 194 | 0.0 | 0.0 | 0.00 | 0.00 | 0.00 | 65 | 1014.2 |
| 20260510160415 | 79 | 205 | 0.0 | 0.0 | 0.00 | 0.00 | 0.00 | 67 | 1013.9 |
| 20260510155913 | 79 | 215 | 0.9 | 0.9 | 0.00 | 0.00 | 0.00 | 66 | 1013.8 |
| 20260510155410 | 78 | 183 | 0.0 | 0.9 | 0.00 | 0.00 | 0.00 | 69 | 1013.9 |
| 20260510154907 | 78 | 190 | 0.9 | 0.9 | 0.00 | 0.00 | 0.00 | 68 | 1014.0 |
| 20260510154403 | 77 | 211 | 0.0 | 0.9 | 0.00 | 0.00 | 0.00 | 69 | 1013.9 |
| 20260510153856 | 77 | 187 | 0.0 | 0.0 | 0.00 | 0.00 | 0.00 | 69 | 1014.3 |
| 20260510153353 | 77 | 195 | 0.9 | 0.9 | 0.00 | 0.00 | 0.00 | 69 | 1014.1 |
| 20260510152850 | 76 | 166 | 0.0 | 0.9 | 0.00 | 0.00 | 0.00 | 69 | 1013.9 |
| 20260510152347 | 76 | 205 | 0.0 | 0.0 | 0.00 | 0.00 | 0.00 | 69 | 1014.1 |
| 20260510151843 | 76 | 173 | 0.0 | 0.9 | 0.00 | 0.00 | 0.00 | 70 | 1014.0 |
| 20260510151341 | 75 | 192 | 0.0 | 0.0 | 0.00 | 0.00 | 0.00 | 71 | 1013.9 |
| 20260510150837 | 75 | 191 | 0.0 | 0.0 | 0.00 | 0.00 | 0.00 | 71 | 1014.1 |
| 20260510150333 | 74 | 219 | 0.0 | 0.9 | 0.00 | 0.00 | 0.00 | 70 | 1014.0 |
| 20260510145829 | 74 | 289 | 0.9 | 0.9 | 0.00 | 0.00 | 0.00 | 69 | 1013.9 |
| 20260510145325 | 74 | 167 | 0.9 | 1.7 | 0.00 | 0.00 | 0.00 | 72 | 1013.9 |
| 20260510144822 | 74 | 177 | 0.0 | 0.9 | 0.00 | 0.00 | 0.00 | 71 | 1014.0 |
| 20260510144319 | 73 | 184 | 0.0 | 0.9 | 0.00 | 0.00 | 0.00 | 73 | 1014.2 |
| 20260510143819 | 72 | 189 | 0.0 | 0.0 | 0.00 | 0.00 | 0.00 | 74 | 1014.5 |
| 20260510143315 | 72 | 184 | 0.0 | 0.0 | 0.00 | 0.00 | 0.00 | 75 | 1014.5 |
| 20260510142812 | 71 | 191 | 0.0 | 0.9 | 0.00 | 0.00 | 0.00 | 73 | 1014.6 |
| 20260510142309 | 71 | 217 | 0.9 | 0.9 | 0.00 | 0.00 | 0.00 | 75 | 1014.9 |
| 20260510141806 | 71 | 36 | 0.0 | 0.9 | 0.00 | 0.00 | 0.00 | 77 | 1014.9 |
| 20260510141303 | 70 | 227 | 0.9 | 0.9 | 0.00 | 0.00 | 0.00 | 77 | 1014.8 |
| 20260510140755 | 69 | 175 | 0.0 | 0.0 | 0.00 | 0.00 | 0.00 | 79 | 1014.9 |
| 20260510140250 | 69 | 194 | 0.0 | 0.0 | 0.00 | 0.00 | 0.00 | 80 | 1015.4 |
| 20260510135744 | 69 | 182 | 0.0 | 0.0 | 0.00 | 0.00 | 0.00 | 80 | 1015.6 |
| 20260510135240 | 69 | 180 | 0.0 | 0.0 | 0.00 | 0.00 | 0.00 | 81 | 1015.8 |
| 20260510134738 | 68 | 181 | 0.0 | 0.0 | 0.00 | 0.00 | 0.00 | 81 | 1015.9 |
| 20260510134235 | 68 | 185 | 0.0 | 0.0 | 0.00 | 0.00 | 0.00 | 81 | 1015.7 |
| 20260510133731 | 68 | 186 | 0.0 | 0.0 | 0.00 | 0.00 | 0.00 | 81 | 1015.8 |
| 20260510133226 | 68 | 184 | 0.0 | 0.0 | 0.00 | 0.00 | 0.00 | 82 | 1015.8 |
| 20260510132723 | 68 | 181 | 0.0 | 0.0 | 0.00 | 0.00 | 0.00 | 82 | 1015.4 |
| 20260510132220 | 68 | 179 | 0.0 | 0.0 | 0.00 | 0.00 | 0.00 | 82 | 1015.3 |
| 20260510131717 | 68 | 193 | 0.9 | 0.9 | 0.00 | 0.00 | 0.00 | 82 | 1015.1 |
| 20260510131215 | 68 | 179 | 0.0 | 0.0 | 0.00 | 0.00 | 0.00 | 82 | 1014.9 |
| 20260510130711 | 68 | 191 | 0.0 | 0.0 | 0.00 | 0.00 | 0.00 | 83 | 1015.0 |
| 20260510130209 | 68 | 179 | 0.0 | 0.0 | 0.00 | 0.00 | 0.00 | 83 | 1015.0 |
| 20260510125704 | 68 | 191 | 0.0 | 0.0 | 0.00 | 0.00 | 0.00 | 83 | 1015.0 |
| 20260510125201 | 67 | 178 | 0.0 | 0.0 | 0.00 | 0.00 | 0.00 | 83 | 1015.1 |
| 20260510124657 | 67 | 218 | 0.0 | 0.0 | 0.00 | 0.00 | 0.00 | 84 | 1014.8 |
| 20260510124155 | 67 | 178 | 0.0 | 0.0 | 0.00 | 0.00 | 0.00 | 85 | 1014.9 |
| 20260510123650 | 67 | 199 | 0.0 | 0.0 | 0.00 | 0.00 | 0.00 | 85 | 1014.8 |
| 20260510123146 | 67 | 191 | 0.0 | 0.0 | 0.00 | 0.00 | 0.00 | 85 | 1014.9 |
| 20260510122642 | 67 | 195 | 0.0 | 0.0 | 0.00 | 0.00 | 0.00 | 85 | 1015.0 |
| 20260510122138 | 67 | 182 | 0.0 | 0.0 | 0.00 | 0.00 | 0.00 | 85 | 1014.9 |
| 20260510121635 | 67 | 179 | 0.0 | 0.9 | 0.00 | 0.00 | 0.00 | 85 | 1014.6 |
| 20260510121133 | 67 | 198 | 0.0 | 0.0 | 0.00 | 0.00 | 0.00 | 86 | 1014.5 |
| 20260510120631 | 67 | 197 | 0.0 | 0.0 | 0.00 | 0.00 | 0.00 | 86 | 1014.4 |
| 20260510120126 | 67 | 173 | 0.0 | 0.0 | 0.00 | 0.00 | 0.00 | 86 | 1014.5 |
| 20260510115622 | 67 | 190 | 0.0 | 0.0 | 0.00 | 0.00 | 0.00 | 86 | 1014.6 |
| 20260510115120 | 67 | 192 | 0.0 | 0.9 | 0.00 | 0.00 | 0.00 | 85 | 1014.3 |
| 20260510114615 | 67 | 186 | 0.0 | 0.0 | 0.00 | 0.00 | 0.00 | 86 | 1014.2 |
| 20260510114112 | 67 | 187 | 0.0 | 0.0 | 0.00 | 0.00 | 0.00 | 85 | 1014.6 |
| 20260510113607 | 67 | 39 | 0.0 | 0.0 | 0.00 | 0.00 | 0.00 | 84 | 1014.5 |
| 20260510113105 | 67 | 175 | 0.0 | 0.0 | 0.00 | 0.00 | 0.00 | 84 | 1014.4 |
| 20260510112601 | 67 | 187 | 0.0 | 0.0 | 0.00 | 0.00 | 0.00 | 84 | 1014.2 |
| 20260510112057 | 67 | 184 | 0.0 | 0.0 | 0.00 | 0.00 | 0.00 | 84 | 1014.1 |
| 20260510111554 | 67 | 188 | 0.0 | 0.0 | 0.00 | 0.00 | 0.00 | 83 | 1014.1 |
| 20260510111050 | 67 | 185 | 0.0 | 0.0 | 0.00 | 0.00 | 0.00 | 83 | 1014.0 |
| 20260510110546 | 67 | 187 | 0.0 | 0.0 | 0.00 | 0.00 | 0.00 | 83 | 1014.1 |
| 20260510110043 | 67 | 65 | 0.0 | 0.0 | 0.00 | 0.00 | 0.00 | 83 | 1014.2 |
| 20260510105538 | 67 | 183 | 0.9 | 0.9 | 0.00 | 0.00 | 0.00 | 83 | 1014.0 |
| 20260510105033 | 67 | 198 | 0.0 | 0.0 | 0.00 | 0.00 | 0.00 | 83 | 1013.8 |
| 20260510104530 | 67 | 182 | 0.0 | 0.0 | 0.00 | 0.00 | 0.00 | 83 | 1013.6 |
| 20260510104026 | 68 | 185 | 0.0 | 0.9 | 0.00 | 0.00 | 0.00 | 83 | 1013.9 |
| 20260510103524 | 68 | 29 | 0.9 | 1.7 | 0.00 | 0.00 | 0.00 | 83 | 1013.7 |
| 20260510103020 | 68 | 177 | 0.0 | 0.9 | 0.00 | 0.00 | 0.00 | 83 | 1013.9 |
| 20260510102516 | 68 | 176 | 0.9 | 0.9 | 0.00 | 0.00 | 0.00 | 82 | 1014.2 |
| 20260510102012 | 69 | 170 | 0.9 | 1.7 | 0.00 | 0.00 | 0.00 | 81 | 1014.4 |
| 20260510101509 | 69 | 182 | 0.0 | 0.0 | 0.00 | 0.00 | 0.00 | 80 | 1014.1 |
| 20260510101008 | 69 | 173 | 0.0 | 0.0 | 0.00 | 0.00 | 0.00 | 80 | 1013.7 |
| 20260510100504 | 70 | 137 | 0.9 | 1.7 | 0.00 | 0.00 | 0.00 | 78 | 1013.5 |
| 20260510100001 | 70 | 35 | 0.9 | 1.7 | 0.00 | 0.00 | 0.00 | 78 | 1013.9 |
| 20260510095456 | 71 | 197 | 0.0 | 0.9 | 0.00 | 0.00 | 0.00 | 77 | 1013.9 |
| 20260510094955 | 71 | 46 | 0.9 | 1.7 | 0.00 | 0.00 | 0.00 | 76 | 1014.2 |
| 20260510094450 | 72 | 188 | 0.0 | 0.9 | 0.00 | 0.00 | 0.00 | 76 | 1014.3 |
| 20260510093947 | 73 | 192 | 0.0 | 0.0 | 0.00 | 0.00 | 0.00 | 78 | 1014.3 |
| 20260510093442 | 74 | 304 | 0.9 | 1.7 | 0.00 | 0.00 | 0.00 | 83 | 1014.2 |
| 20260510092939 | 75 | 158 | 0.9 | 0.9 | 0.00 | 0.00 | 0.00 | 90 | 1013.8 |
| 20260510092437 | 75 | 146 | 0.0 | 0.9 | 0.00 | 0.00 | 0.00 | 90 | 1013.7 |
| 20260510091936 | 75 | 50 | 0.9 | 1.7 | 0.00 | 0.00 | 0.00 | 90 | 1013.2 |
| 20260510091433 | 75 | 146 | 0.0 | 0.0 | 0.00 | 0.00 | 0.00 | 90 | 1013.2 |
| 20260510090930 | 74 | 175 | 0.0 | 0.0 | 0.00 | 0.00 | 0.00 | 89 | 1013.1 |
| 20260510090426 | 74 | 170 | 0.0 | 0.0 | 0.00 | 0.00 | 0.00 | 89 | 1012.8 |
| 20260510085922 | 74 | 28 | 0.0 | 0.0 | 0.00 | 0.00 | 0.00 | 89 | 1012.5 |
| 20260510085418 | 73 | 177 | 0.0 | 0.0 | 0.00 | 0.00 | 0.00 | 89 | 1012.2 |
| 20260510084913 | 73 | 181 | 0.0 | 0.0 | 0.00 | 0.00 | 0.00 | 89 | 1011.9 |
| 20260510084411 | 73 | 180 | 0.0 | 0.0 | 0.00 | 0.00 | 0.00 | 89 | 1012.1 |
| 20260510083907 | 73 | 174 | 0.0 | 0.0 | 0.00 | 0.00 | 0.00 | 89 | 1012.2 |
| 20260510083403 | 72 | 170 | 0.0 | 0.0 | 0.00 | 0.00 | 0.00 | 89 | 1012.1 |
| 20260510082859 | 72 | 170 | 0.0 | 0.0 | 0.00 | 0.00 | 0.00 | 89 | 1012.1 |
| 20260510082357 | 72 | 170 | 0.0 | 0.0 | 0.00 | 0.00 | 0.00 | 89 | 1012.1 |
| 20260510081855 | 72 | 170 | 0.0 | 0.0 | 0.00 | 0.00 | 0.00 | 89 | 1011.6 |
| 20260510081351 | 72 | 170 | 0.0 | 0.0 | 0.00 | 0.00 | 0.00 | 88 | 1011.4 |
| 20260510080849 | 72 | 170 | 0.0 | 0.0 | 0.00 | 0.00 | 0.00 | 88 | 1011.1 |
| 20260510080342 | 72 | 170 | 0.0 | 0.0 | 0.00 | 0.00 | 0.00 | 87 | 1011.3 |
| 20260510075839 | 73 | 170 | 0.0 | 0.0 | 0.00 | 0.00 | 0.00 | 87 | 1011.1 |
| 20260510075337 | 73 | 170 | 0.0 | 0.0 | 0.00 | 0.00 | 0.00 | 87 | 1011.1 |
| 20260510074828 | 73 | 170 | 0.0 | 0.0 | 0.00 | 0.00 | 0.00 | 86 | 1011.0 |
| 20260510074326 | 73 | 170 | 0.0 | 0.0 | 0.00 | 0.00 | 0.00 | 86 | 1010.9 |
| 20260510073821 | 73 | 170 | 0.0 | 0.0 | 0.00 | 0.00 | 0.00 | 85 | 1010.7 |
| 20260510073312 | 73 | 170 | 0.0 | 0.0 | 0.00 | 0.00 | 0.00 | 85 | 1010.7 |
| 20260510072808 | 74 | 170 | 0.0 | 0.0 | 0.00 | 0.00 | 0.00 | 85 | 1010.5 |
| 20260510072306 | 74 | 170 | 0.0 | 0.0 | 0.00 | 0.00 | 0.00 | 84 | 1010.8 |
| 20260510071801 | 74 | 169 | 0.0 | 0.0 | 0.00 | 0.00 | 0.00 | 84 | 1011.0 |
| 20260510071257 | 74 | 167 | 0.0 | 0.0 | 0.00 | 0.00 | 0.00 | 84 | 1011.1 |
| 20260510070756 | 74 | 173 | 0.0 | 0.0 | 0.00 | 0.00 | 0.00 | 83 | 1011.0 |
| 20260510070252 | 74 | 182 | 0.0 | 0.0 | 0.00 | 0.00 | 0.00 | 83 | 1011.2 |
| 20260510065746 | 74 | 182 | 0.0 | 0.0 | 0.00 | 0.00 | 0.00 | 83 | 1011.5 |
| 20260510065243 | 74 | 116 | 0.0 | 0.0 | 0.00 | 0.00 | 0.00 | 83 | 1011.6 |
| 20260510064739 | 74 | 172 | 0.0 | 0.0 | 0.00 | 0.00 | 0.00 | 83 | 1011.5 |
| 20260510064238 | 75 | 160 | 0.0 | 0.0 | 0.00 | 0.00 | 0.00 | 82 | 1011.3 |
| 20260510063733 | 75 | 166 | 0.0 | 0.0 | 0.00 | 0.00 | 0.00 | 82 | 1011.5 |
| 20260510063230 | 75 | 166 | 0.0 | 0.0 | 0.00 | 0.00 | 0.00 | 81 | 1011.7 |
| 20260510062727 | 75 | 153 | 0.0 | 0.0 | 0.00 | 0.00 | 0.00 | 80 | 1011.7 |
| 20260510062223 | 75 | 150 | 0.0 | 0.0 | 0.00 | 0.00 | 0.00 | 80 | 1011.0 |
| 20260510061718 | 76 | 180 | 0.0 | 0.0 | 0.00 | 0.00 | 0.00 | 79 | 1010.7 |
| 20260510061216 | 76 | 189 | 0.0 | 0.0 | 0.00 | 0.00 | 0.00 | 79 | 1010.2 |
| 20260510060712 | 76 | 185 | 0.0 | 0.0 | 0.00 | 0.00 | 0.00 | 79 | 1010.2 |
| 20260510060208 | 76 | 96 | 0.0 | 0.0 | 0.00 | 0.00 | 0.00 | 79 | 1009.9 |
| 20260510055705 | 75 | 99 | 0.0 | 0.0 | 0.00 | 0.00 | 0.00 | 79 | 1009.7 |
| 20260510055203 | 75 | 161 | 0.0 | 0.0 | 0.00 | 0.00 | 0.00 | 78 | 1009.7 |
| 20260510054658 | 75 | 164 | 0.0 | 0.0 | 0.00 | 0.00 | 0.00 | 78 | 1009.9 |
| 20260510054154 | 75 | 189 | 0.0 | 0.0 | 0.00 | 0.00 | 0.00 | 78 | 1009.8 |
| 20260510053653 | 76 | 171 | 0.0 | 0.0 | 0.00 | 0.00 | 0.00 | 78 | 1009.9 |
| 20260510053151 | 76 | 171 | 0.0 | 0.0 | 0.00 | 0.00 | 0.00 | 78 | 1009.9 |
| 20260510052646 | 76 | 174 | 0.9 | 0.9 | 0.00 | 0.00 | 0.00 | 78 | 1009.8 |
| 20260510052142 | 76 | 181 | 0.0 | 0.0 | 0.00 | 0.00 | 0.00 | 77 | 1009.7 |
| 20260510051638 | 76 | 194 | 0.0 | 0.0 | 0.00 | 0.00 | 0.00 | 77 | 1009.7 |
| 20260510051135 | 76 | 180 | 0.0 | 0.0 | 0.00 | 0.00 | 0.00 | 77 | 1009.5 |
| 20260510050632 | 76 | 182 | 0.0 | 0.0 | 0.00 | 0.00 | 0.00 | 76 | 1009.6 |
| 20260510050130 | 76 | 184 | 0.9 | 0.9 | 0.00 | 0.00 | 0.00 | 76 | 1009.4 |
| 20260510045626 | 77 | 181 | 0.0 | 0.0 | 0.00 | 0.00 | 0.00 | 75 | 1009.3 |
| 20260510045122 | 77 | 180 | 0.0 | 0.0 | 0.00 | 0.00 | 0.00 | 74 | 1009.2 |
| 20260510044619 | 77 | 186 | 0.0 | 0.0 | 0.00 | 0.00 | 0.00 | 73 | 1009.3 |
| 20260510044116 | 77 | 207 | 0.0 | 0.9 | 0.00 | 0.00 | 0.00 | 72 | 1009.1 |
| 20260510043612 | 76 | 194 | 0.0 | 0.0 | 0.00 | 0.00 | 0.00 | 71 | 1009.2 |
| 20260510043108 | 76 | 183 | 0.0 | 0.0 | 0.00 | 0.00 | 0.00 | 71 | 1009.5 |
| 20260510042607 | 76 | 175 | 0.0 | 0.0 | 0.00 | 0.00 | 0.00 | 71 | 1009.2 |
| 20260510042102 | 76 | 177 | 0.0 | 0.0 | 0.00 | 0.00 | 0.00 | 72 | 1009.3 |
| 20260510041600 | 76 | 178 | 0.0 | 0.0 | 0.00 | 0.00 | 0.00 | 70 | 1009.3 |
| 20260510041057 | 76 | 180 | 0.0 | 0.0 | 0.00 | 0.00 | 0.00 | 71 | 1009.7 |
| 20260510040554 | 76 | 181 | 0.0 | 0.0 | 0.00 | 0.00 | 0.00 | 71 | 1009.4 |
| 20260510040049 | 77 | 191 | 0.0 | 0.0 | 0.00 | 0.00 | 0.00 | 71 | 1009.4 |
| 20260510035546 | 76 | 190 | 0.0 | 0.0 | 0.00 | 0.00 | 0.00 | 71 | 1009.5 |
| 20260510035045 | 76 | 184 | 0.0 | 0.0 | 0.00 | 0.00 | 0.00 | 72 | 1009.6 |
| 20260510034544 | 77 | 184 | 0.0 | 0.0 | 0.00 | 0.00 | 0.00 | 72 | 1009.5 |
| 20260510034041 | 77 | 184 | 0.0 | 0.0 | 0.00 | 0.00 | 0.00 | 71 | 1009.4 |
| 20260510033536 | 77 | 184 | 0.0 | 0.0 | 0.00 | 0.00 | 0.00 | 71 | 1009.6 |
| 20260510033035 | 77 | 190 | 0.0 | 0.0 | 0.00 | 0.00 | 0.00 | 70 | 1009.5 |
| 20260510032531 | 77 | 190 | 0.0 | 0.0 | 0.00 | 0.00 | 0.00 | 70 | 1009.5 |
| 20260510032026 | 78 | 191 | 0.0 | 0.0 | 0.00 | 0.00 | 0.00 | 69 | 1009.7 |
| 20260510031521 | 78 | 191 | 0.0 | 0.0 | 0.00 | 0.00 | 0.00 | 68 | 1009.6 |
| 20260510031017 | 78 | 179 | 0.0 | 0.0 | 0.00 | 0.00 | 0.00 | 68 | 1009.7 |
| 20260510030513 | 78 | 183 | 0.0 | 0.0 | 0.00 | 0.00 | 0.00 | 68 | 1009.6 |
| 20260510030011 | 78 | 179 | 0.0 | 0.0 | 0.00 | 0.00 | 0.00 | 67 | 1009.8 |
| 20260510025508 | 78 | 184 | 0.0 | 0.0 | 0.00 | 0.00 | 0.00 | 67 | 1009.6 |
| 20260510025005 | 78 | 188 | 0.0 | 0.0 | 0.00 | 0.00 | 0.00 | 67 | 1009.4 |
| 20260510024502 | 78 | 185 | 0.0 | 0.0 | 0.00 | 0.00 | 0.00 | 68 | 1009.5 |
| 20260510023958 | 78 | 182 | 0.0 | 0.0 | 0.00 | 0.00 | 0.00 | 68 | 1009.3 |
| 20260510023454 | 78 | 184 | 0.0 | 0.0 | 0.00 | 0.00 | 0.00 | 68 | 1009.3 |
| 20260510022951 | 77 | 185 | 0.0 | 0.0 | 0.00 | 0.00 | 0.00 | 68 | 1009.4 |
| 20260510022450 | 77 | 179 | 0.0 | 0.0 | 0.00 | 0.00 | 0.00 | 69 | 1009.3 |
| 20260510021949 | 77 | 177 | 0.0 | 0.0 | 0.00 | 0.00 | 0.00 | 69 | 1009.1 |
| 20260510021448 | 77 | 179 | 0.0 | 0.0 | 0.00 | 0.00 | 0.00 | 70 | 1009.1 |
| 20260510020944 | 76 | 186 | 0.0 | 0.0 | 0.00 | 0.00 | 0.00 | 69 | 1009.0 |
| 20260510020438 | 76 | 172 | 0.0 | 0.0 | 0.00 | 0.00 | 0.00 | 69 | 1009.1 |
| 20260510015935 | 76 | 172 | 0.0 | 0.0 | 0.00 | 0.00 | 0.00 | 69 | 1009.2 |
| 20260510015431 | 77 | 172 | 0.0 | 0.0 | 0.00 | 0.00 | 0.00 | 69 | 1008.9 |
| 20260510014926 | 77 | 172 | 0.0 | 0.0 | 0.00 | 0.00 | 0.00 | 68 | 1008.9 |
| 20260510014424 | 77 | 172 | 0.0 | 0.0 | 0.00 | 0.00 | 0.00 | 66 | 1008.7 |
| 20260510013920 | 77 | 172 | 0.0 | 0.0 | 0.00 | 0.00 | 0.00 | 65 | 1008.7 |
| 20260510013414 | 78 | 172 | 0.0 | 0.0 | 0.00 | 0.00 | 0.00 | 65 | 1008.8 |
| 20260510012910 | 78 | 172 | 0.0 | 0.0 | 0.00 | 0.00 | 0.00 | 65 | 1008.7 |
| 20260510012406 | 78 | 172 | 0.0 | 0.0 | 0.00 | 0.00 | 0.00 | 64 | 1008.7 |
| 20260510011900 | 79 | 172 | 0.0 | 0.0 | 0.00 | 0.00 | 0.00 | 63 | 1008.4 |
| 20260510011356 | 79 | 172 | 0.0 | 0.0 | 0.00 | 0.00 | 0.00 | 63 | 1008.4 |
| 20260510010852 | 80 | 172 | 0.0 | 0.0 | 0.00 | 0.00 | 0.00 | 62 | 1008.2 |
| 20260510010349 | 80 | 172 | 0.0 | 0.0 | 0.00 | 0.00 | 0.00 | 62 | 1008.1 |
| 20260510005846 | 80 | 171 | 0.0 | 0.0 | 0.00 | 0.00 | 0.00 | 61 | 1008.2 |
| 20260510005342 | 81 | 169 | 0.0 | 0.0 | 0.00 | 0.00 | 0.00 | 60 | 1007.9 |
| 20260510004840 | 81 | 169 | 0.0 | 0.0 | 0.00 | 0.00 | 0.00 | 61 | 1008.2 |
| 20260510004337 | 82 | 169 | 0.0 | 0.0 | 0.00 | 0.00 | 0.00 | 59 | 1008.3 |
| 20260510003835 | 82 | 169 | 0.0 | 0.0 | 0.00 | 0.00 | 0.00 | 58 | 1008.2 |
| 20260510003332 | 83 | 142 | 0.0 | 0.0 | 0.00 | 0.00 | 0.00 | 57 | 1008.1 |
| 20260510002830 | 83 | 134 | 0.0 | 0.0 | 0.00 | 0.00 | 0.00 | 54 | 1008.2 |
| 20260510002328 | 84 | 160 | 0.0 | 0.0 | 0.00 | 0.00 | 0.00 | 54 | 1008.0 |
| 20260510001824 | 84 | 164 | 0.0 | 0.0 | 0.00 | 0.00 | 0.00 | 55 | 1008.2 |
| 20260510001323 | 84 | 154 | 0.0 | 0.0 | 0.00 | 0.00 | 0.00 | 54 | 1008.1 |
| 20260510000818 | 84 | 171 | 0.0 | 0.0 | 0.00 | 0.00 | 0.00 | 55 | 1008.2 |
| 20260510000318 | 84 | 166 | 0.0 | 0.0 | 0.00 | 0.00 | 0.00 | 54 | 1008.2 |
| 20260509235813 | 84 | 173 | 0.0 | 0.0 | 0.00 | 0.00 | 0.00 | 54 | 1008.0 |
| 20260509235309 | 85 | 180 | 0.0 | 0.0 | 0.00 | 0.00 | 0.00 | 54 | 1008.2 |
| 20260509234805 | 85 | 181 | 0.0 | 0.0 | 0.00 | 0.00 | 0.00 | 53 | 1008.2 |